Weather History for Lakeland Region, FL

Change the Weather History Date:

Sunday, October 6, 2013

  Actual Average Record
Temperature  
Mean Temperature 80 °F -  
Max Temperature 89 °F 82 °F 91 °F (1986)
Min Temperature 71 °F 68 °F 57 °F (2014)
Cooling Degree Days 15    
Growing Degree Days 30 (Base 50)    
Moisture  
Dew Point 69 °F    
Average Humidity 81    
Maximum Humidity 94    
Minimum Humidity 46    
Precipitation  
Precipitation 0.00 in - - ()
Sea Level Pressure  
Sea Level Pressure 29.95 in    
Wind  
Wind Speed 1 mph (South)    
Max Wind Speed 8 mph    
Max Gust Speed -    
Visibility 13 miles    
Events      
Averages and records for this station are not official NWS values.
T = Trace of Precipitation, MM = Missing Value Source: NWS Daily Summary

Daily Weather History Graph

Daily Weather History Graph

Search for Another Location

Airport:

Trip Planner

Search our weather history database for the weather conditions in past years. The results will help you decide how hot, cold, wet, or windy it might be!

Date:

Astronomy

Oct. 06, 2013 Rise Set
Actual Time 7:23 AM EDT 7:08 PM EDT
Civil Twilight 7:00 AM EDT 7:31 PM EDT
Nautical Twilight 6:32 AM EDT 7:58 PM EDT
Astronomical Twilight 6:05 AM EDT 8:25 PM EDT
Moon 8:55 AM EDT (10/6) 8:19 PM EDT (10/6)
Length of Visible Light 12h 31m
Length of Day
11h 44m
Waxing Crescent, 3% of the Moon is Illuminated
Oct 6
Waxing Crescent
Oct 11
First Quarter
Oct 18
Full
Oct 26
Last Quarter
Nov 3
New

Hourly Weather History & Observations

Time (EDT) Temp. Heat Index Dew Point Humidity Pressure Visibility Wind Dir Wind Speed Gust Speed Precip Events Conditions
12:15 AM 73.4 °F - 68.0 °F 83% 30.01 in 10.0 mi Calm Calm - N/A   Clear
12:35 AM 73.4 °F - 68.0 °F 83% 30.00 in 10.0 mi Calm Calm - N/A   Clear
12:55 AM 73.4 °F - 68.0 °F 83% 30.00 in 10.0 mi Calm Calm - N/A   Clear
1:15 AM 73.4 °F - 68.0 °F 83% 30.00 in 10.0 mi Calm Calm - N/A   Clear
1:35 AM 73.4 °F - 69.8 °F 88% 29.99 in 10.0 mi Calm Calm - N/A   Clear
1:55 AM 73.4 °F - 69.8 °F 88% 29.99 in 10.0 mi Calm Calm - N/A   Clear
2:15 AM 73.4 °F - 69.8 °F 88% 29.99 in 10.0 mi Calm Calm - N/A   Clear
2:35 AM 73.4 °F - 69.8 °F 88% 29.98 in 10.0 mi Calm Calm - N/A   Clear
2:55 AM 71.6 °F - 69.8 °F 94% 29.98 in 10.0 mi Calm Calm - N/A   Clear
3:15 AM 71.6 °F - 69.8 °F 94% 29.97 in 10.0 mi Calm Calm - N/A   Clear
3:35 AM 73.4 °F - 69.8 °F 88% 29.96 in 10.0 mi Calm Calm - N/A   Clear
3:55 AM 71.6 °F - 69.8 °F 94% 29.96 in 10.0 mi Calm Calm - N/A   Clear
4:15 AM 71.6 °F - 69.8 °F 94% 29.95 in 10.0 mi Calm Calm - N/A   Clear
4:35 AM 71.6 °F - 69.8 °F 94% 29.95 in 10.0 mi Calm Calm - N/A   Clear
4:55 AM 71.6 °F - 69.8 °F 94% 29.94 in 10.0 mi Calm Calm - N/A   Clear
5:15 AM 71.6 °F - 69.8 °F 94% 29.94 in 10.0 mi Calm Calm - N/A   Clear
5:35 AM 71.6 °F - 69.8 °F 94% 29.95 in 10.0 mi Calm Calm - N/A   Clear
5:55 AM 71.6 °F - 69.8 °F 94% 29.95 in 10.0 mi Calm Calm - N/A   Clear
5:58 AM 73.4 °F - 71.6 °F 94% 29.95 in 10.0 mi Calm Calm - N/A   Partly Cloudy
6:15 AM 71.6 °F - 69.8 °F 94% 29.96 in 10.0 mi Calm Calm - N/A   Clear
6:35 AM 71.6 °F - 69.8 °F 94% 29.96 in 10.0 mi Calm Calm - N/A   Clear
6:50 AM 73.4 °F - 71.6 °F 94% 29.96 in 10.0 mi Variable 3.5 mph - N/A   Clear
7:51 AM 73.4 °F - 71.6 °F 94% 29.97 in 10.0 mi Calm Calm - N/A   Clear
8:51 AM 77.0 °F - 73.4 °F 89% 29.98 in 12.0 mi East 4.6 mph - N/A   Clear
9:51 AM 80.6 °F 85.4 °F 73.4 °F 79% 29.98 in 15.0 mi SE 5.8 mph - N/A   Mostly Cloudy
10:52 AM 82.4 °F 86.3 °F 69.8 °F 66% 29.99 in 20.0 mi SSE 6.9 mph - N/A   Mostly Cloudy
11:51 AM 84.2 °F 88.4 °F 69.8 °F 62% 29.98 in 20.0 mi SSE 8.1 mph - N/A   Mostly Cloudy
12:50 PM 84.2 °F 87.3 °F 68.0 °F 58% 29.96 in 20.0 mi Calm Calm - N/A   Mostly Cloudy
1:50 PM 87.8 °F 91.4 °F 68.0 °F 52% 29.94 in 15.0 mi ESE 3.5 mph - N/A   Mostly Cloudy
2:50 PM 89.6 °F 92.2 °F 66.2 °F 46% 29.92 in 20.0 mi SSE 6.9 mph - N/A   Mostly Cloudy
3:56 PM 89.6 °F 92.2 °F 66.2 °F 46% 29.89 in 15.0 mi South 5.8 mph - N/A   Scattered Clouds
5:55 PM 86.0 °F 89.4 °F 68.0 °F 55% 29.88 in 15.0 mi West 5.8 mph - N/A   Mostly Cloudy
6:50 PM 84.2 °F 88.4 °F 69.8 °F 62% 29.89 in 20.0 mi Calm Calm - N/A   Mostly Cloudy
6:55 PM 86.0 °F 89.4 °F 68.0 °F 55% 29.88 in 15.0 mi West 5.8 mph - N/A   Mostly Cloudy
7:50 PM 82.4 °F 84.6 °F 66.2 °F 58% 29.91 in 20.0 mi WSW 3.5 mph - N/A   Mostly Cloudy
8:50 PM 78.8 °F - 69.8 °F 74% 29.91 in 20.0 mi West 4.6 mph - N/A   Mostly Cloudy
9:50 PM 78.8 °F - 69.8 °F 74% 29.92 in 20.0 mi Calm Calm - N/A   Mostly Cloudy
10:55 PM 75.2 °F - 69.8 °F 83% 29.92 in 10.0 mi Calm Calm - N/A   Scattered Clouds
11:15 PM 75.2 °F - 69.8 °F 83% 29.91 in 10.0 mi Calm Calm - N/A   Clear
11:35 PM 73.4 °F - 69.8 °F 88% 29.90 in 10.0 mi Calm Calm - N/A   Clear
11:55 PM 73.4 °F - 69.8 °F 88% 29.90 in 10.0 mi SSE 3.5 mph - N/A   Clear